Regional Weather Roundup
Issued by NWS Jackson, KY

Home | Current Version | Previous Version | Text Only | Print | Product List | Glossary Off
Versions: 1 2 3 4 5 6 7 8 9 10 11 12 13 14 15 16 17 18 19 20 21 22 23 24 25 26 27 28 29 30 31 32 33 34 35 36 37 38 39 40 41 42 43 44 45 46 47 48 49 50

434
ASUS43 KJKL 151710
RWRJKL

EAST KENTUCKY HOURLY WEATHER ROUNDUP
NATIONAL WEATHER SERVICE JACKSON KY
1200 PM EST SUN JAN 15 2017

NOTE: "FAIR" INDICATES FEW OR NO CLOUDS BELOW 12,000 FEET WITH
NO SIGNIFICANT WEATHER AND/OR OBSTRUCTIONS TO VISIBILITY.

* THESE REPORTS ARE NOT UNDER NWS QUALITY CONTROL AND MAY NOT
  REPORT WEATHER SUCH AS PRECIPITATION AND FOG.

KYZ079-080-083-085-087-088-110-112-115-119-120-151800
...EASTERN KENTUCKY...

CITY           SKY/WX    TMP DP  RH WIND       PRES   REMARKS
JACKSON        FOG       41  39  93 CALM      30.35F VSB<1/4
LONDON         CLOUDY    45  42  89 CALM      30.34F
SOMERSET*      CLOUDY    45  45 100 N3        30.36F
MONTICELLO*    CLOUDY    46  45  96 N14       30.36F
WILLIAMSBURG*  CLOUDY    46  46 100 CALM      30.33F
MIDDLESBORO*   CLOUDY    51  49  91 CALM      30.33F
HARLAN APT*    CLOUDY    50  46  87 CALM      30.33F
PIKE CO APT*   FOG       40  40 100 CALM      30.34F VSB<1/4
BIG SANDY APT* CLOUDY    40  40 100 NE3       30.36F FOG
MOREHEAD APT*  CLOUDY    39  37  93 VRB3      30.39F
ASHLAND*       CLOUDY    39  36  87 CALM      30.40F
$$

KYZ035-036-041-042-044-050-067-078-099-151800
...CENTRAL KENTUCKY...

CITY           SKY/WX    TMP DP  RH WIND       PRES   REMARKS
MT STERLING*   CLOUDY    37  37 100 E3        30.39F
FLEMING/MASON* CLOUDY    36  35  96 E5        30.40F FOG     WCI  32
DANVILLE*      CLOUDY    37  37 100 NE5       30.37F WCI  34
LEXINGTON      CLOUDY    39  36  89 NE9       30.36F FOG     WCI  33
FRANKFORT      CLOUDY    38  35  89 NE5       30.38S FOG     WCI  34
LOUISVILLE     LGT RAIN  40  36  86 NE5       30.39F FOG
LEBANON*       CLOUDY    39  39 100 NE3       30.37F FOG
GLASGOW*       CLOUDY   N/A N/A N/A NE6       30.35F HAZE
BOWLING GREEN  CLOUDY    45  43  93 NE7       30.36F FOG
$$

KYZ091>093-OHZ055-061-077-WVZ005-015-034-035-042-151800
...SOUTHERN OHIO/WEST VIRGINIA...

CITY           SKY/WX    TMP DP  RH WIND       PRES   REMARKS
COVINGTON      CLOUDY    35  34  96 E5        30.39F FOG     WCI  31
COLUMBUS       CLOUDY    34  30  85 E5        30.42F WCI  30
DAYTON         CLOUDY    30  27  88 E6        30.40F FOG     WCI  24
WILMINGTON     CLOUDY    33  31  92 E5        30.38F FOG     WCI  29
HUNTINGTON     CLOUDY    38  35  89 E3        30.38F FOG
CHARLESTON     CLOUDY    39  36  89 CALM      30.38F FOG
BECKLEY        FOG       40  39  97 CALM      30.32F VSB 1/4
BLUEFIELD      CLOUDY    46  45  96 W6        30.31F
LOGAN CO APT*  FOG       39  39 100 CALM      30.34F VSB<1/4
$$

VAZ002-007-008-TNZ017-027-036-066-071-151800
...SOUTHWEST VIRGINIA/EAST TENNESSEE...

CITY           SKY/WX    TMP DP  RH WIND       PRES   REMARKS
WISE*          FOG       50  50 100 CALM      30.32F VSB 1/4
JONESVILLE*    CLOUDY    54  50  87 CALM      30.35F
ABINGDON*      CLOUDY    57  54  89 W8        30.32F
BRISTOL        CLOUDY    57  53  86 NW3       30.32F
MORRISTOWN*    CLOUDY    55  55 100 CALM      30.31F
SEVIERVILLE*   CLOUDY    57  55  94 CALM      30.31F
KNOXVILLE      CLOUDY    60  55  83 CALM      30.31F
LAFOLLETTE*    CLOUDY    55  52  88 CALM      30.35F
OAK RIDGE      LGT RAIN  58  54  86 CALM      30.33F
CROSSVILLE     CLOUDY    57  54  89 VRB5      30.33F
NASHVILLE      CLOUDY    50  45  83 CALM      30.34F
$$

...KEY TO REMARKS...
VSB - VISIBILITY IN MILES
WCI - WIND CHILL INDEX
HX  - HEAT INDEX

$$




USA.gov is the U.S. government's official web portal to all federal, state and local government web resources and services.